Sturgis, MI

3:09 AM EDT on August 20, 2017 (GMT -0400)
Kirsch Municipal

Weather History for KIRS - May, 2013

Change the Weather History Date:

Sunday, May 5, 2013

  Actual Average (KHAI) Record (KHAI)
Temperature  
Mean Temperature 61 °F -  
Max Temperature 71 °F 68 °F 90 °F (1949)
Min Temperature 51 °F 43 °F 30 °F (1979)
Degree Days  
Heating Degree Days 4    
Growing Degree Days 11 (Base 50)    
Moisture  
Dew Point 41 °F    
Average Humidity 48    
Maximum Humidity 71    
Minimum Humidity 32    
Precipitation  
Precipitation 0.00 in - - ()
Sea Level Pressure  
Sea Level Pressure 30.02 in    
Wind  
Wind Speed 9 mph (East)    
Max Wind Speed 17 mph    
Max Gust Speed 23 mph    
Visibility 10 miles    
Events      
Averages and records for this station are not official NWS values.
T = Trace of Precipitation, MM = Missing Value Source: NWS Daily Summary

Daily Weather History Graph

Daily Weather History Graph

Search for Another Location

Airport or City:

Trip Planner

Search our weather history database for the weather conditions in past years. The results will help you decide how hot, cold, wet, or windy it might be!

Date:

Astronomy

May. 05, 2013 Rise Set
Actual Time 6:32 AM EDT 8:44 PM EDT
Civil Twilight 6:01 AM EDT 9:15 PM EDT
Nautical Twilight 5:24 AM EDT 9:53 PM EDT
Astronomical Twilight 4:42 AM EDT 10:35 PM EDT
Moon 4:06 AM EDT (5/5) 4:40 PM EDT (5/5)
Length of Visible Light 15h 13m
Length of Day
14h 12m
Waning Crescent, 18% of the Moon is Illuminated
May 5
Waning Crescent
May 9
New
May 18
First Quarter
May 25
Full
May 31
Last Quarter

Hourly Weather History & Observations

Time (EDT) Temp. Dew Point Humidity Pressure Visibility Wind Dir Wind Speed Gust Speed Precip Events Conditions
12:15 AM 55.4 °F 39.2 °F 54% 30.04 in 10.0 mi East 9.2 mph - N/A   Clear
12:35 AM 57.2 °F 39.2 °F 51% 30.05 in 10.0 mi East 9.2 mph - N/A   Clear
12:54 AM 55.4 °F 39.2 °F 54% 30.05 in 10.0 mi East 9.2 mph - N/A   Clear
1:14 AM 55.4 °F 39.2 °F 54% 30.05 in 10.0 mi East 8.1 mph - N/A   Clear
1:35 AM 55.4 °F 39.2 °F 54% 30.04 in 10.0 mi East 8.1 mph - N/A   Clear
1:55 AM 55.4 °F 39.2 °F 54% 30.04 in 10.0 mi East 8.1 mph - N/A   Clear
2:14 AM 53.6 °F 39.2 °F 58% 30.03 in 10.0 mi East 6.9 mph - N/A   Clear
2:35 AM 53.6 °F 39.2 °F 58% 30.03 in 10.0 mi East 6.9 mph - N/A   Clear
2:55 AM 53.6 °F 39.2 °F 58% 30.03 in 10.0 mi East 8.1 mph - N/A   Clear
3:14 AM 53.6 °F 39.2 °F 58% 30.02 in 10.0 mi East 8.1 mph - N/A   Clear
3:35 AM 51.8 °F 39.2 °F 62% 30.02 in 10.0 mi East 6.9 mph - N/A   Clear
3:54 AM 51.8 °F 39.2 °F 62% 30.02 in 10.0 mi East 6.9 mph - N/A   Clear
4:15 AM 51.8 °F 39.2 °F 62% 30.02 in 10.0 mi East 8.1 mph - N/A   Clear
4:35 AM 51.8 °F 39.2 °F 62% 30.02 in 10.0 mi East 8.1 mph - N/A   Clear
4:54 AM 51.8 °F 39.2 °F 62% 30.01 in 10.0 mi East 6.9 mph - N/A   Clear
5:15 AM 51.8 °F 39.2 °F 62% 30.01 in 10.0 mi East 8.1 mph - N/A   Clear
5:35 AM 51.8 °F 41.0 °F 67% 30.01 in 10.0 mi East 9.2 mph - N/A   Clear
5:54 AM 51.8 °F 41.0 °F 67% 30.01 in 10.0 mi East 8.1 mph - N/A   Clear
6:15 AM 51.8 °F 41.0 °F 67% 30.02 in 10.0 mi East 8.1 mph - N/A   Clear
6:35 AM 51.8 °F 41.0 °F 67% 30.02 in 10.0 mi East 8.1 mph - N/A   Clear
6:54 AM 51.8 °F 42.8 °F 71% 30.02 in 10.0 mi East 6.9 mph - N/A   Clear
7:15 AM 51.8 °F 42.8 °F 71% 30.03 in 10.0 mi East 6.9 mph - N/A   Clear
7:35 AM 51.8 °F 42.8 °F 71% 30.03 in 10.0 mi East 8.1 mph - N/A   Clear
8:15 AM 55.4 °F 44.6 °F 67% 30.03 in 10.0 mi East 9.2 mph - N/A   Clear
8:35 AM 57.2 °F 44.6 °F 63% 30.03 in 10.0 mi East 10.4 mph - N/A   Clear
8:54 AM 59.0 °F 44.6 °F 59% 30.04 in 10.0 mi ESE 9.2 mph - N/A   Clear
9:15 AM 60.8 °F 44.6 °F 55% 30.04 in 10.0 mi ESE 10.4 mph - N/A   Clear
9:35 AM 62.6 °F 44.6 °F 52% 30.05 in 10.0 mi ESE 8.1 mph - N/A   Clear
9:54 AM 62.6 °F 44.6 °F 52% 30.05 in 10.0 mi SE 10.4 mph - N/A   Clear
10:15 AM 62.6 °F 44.6 °F 52% 30.04 in 10.0 mi ESE 8.1 mph - N/A   Clear
10:35 AM 62.6 °F 44.6 °F 52% 30.04 in 10.0 mi SE 10.4 mph 17.3 mph N/A   Clear
10:54 AM 62.6 °F 44.6 °F 52% 30.05 in 10.0 mi ESE 10.4 mph - N/A   Clear
11:15 AM 64.4 °F 44.6 °F 49% 30.05 in 10.0 mi ESE 6.9 mph - N/A   Clear
11:34 AM 66.2 °F 44.6 °F 46% 30.05 in 10.0 mi ESE 5.8 mph 9.2 mph N/A   Clear
12:00 PM 66.2 °F 44.6 °F 46% 30.05 in 10.0 mi ESE 11.5 mph 16.1 mph N/A   Clear
12:15 PM 68.0 °F 44.6 °F 43% 30.04 in 10.0 mi ESE 11.5 mph 18.4 mph N/A   Clear
12:34 PM 68.0 °F 44.6 °F 43% 30.04 in 10.0 mi East 9.2 mph 19.6 mph N/A   Clear
12:55 PM 68.0 °F 42.8 °F 40% 30.03 in 10.0 mi ESE 12.7 mph 19.6 mph N/A   Clear
1:15 PM 69.8 °F 44.6 °F 40% 30.03 in 10.0 mi East 9.2 mph 17.3 mph N/A   Clear
1:34 PM 69.8 °F 44.6 °F 40% 30.02 in 10.0 mi East 15.0 mph 23.0 mph N/A   Clear
2:15 PM 69.8 °F 42.8 °F 38% 30.02 in 10.0 mi East 15.0 mph 18.4 mph N/A   Clear
2:34 PM 69.8 °F 42.8 °F 38% 30.01 in 10.0 mi ESE 8.1 mph 19.6 mph N/A   Clear
2:55 PM 71.6 °F 44.6 °F 38% 30.00 in 10.0 mi SE 15.0 mph 19.6 mph N/A   Clear
3:15 PM 71.6 °F 42.8 °F 35% 30.00 in 10.0 mi East 17.3 mph 21.9 mph N/A   Clear
3:34 PM 71.6 °F 42.8 °F 35% 30.00 in 10.0 mi East 11.5 mph 19.6 mph N/A   Clear
3:55 PM 71.6 °F 42.8 °F 35% 29.99 in 10.0 mi SE 12.7 mph 21.9 mph N/A   Clear
4:15 PM 71.6 °F 41.0 °F 33% 29.99 in 10.0 mi East 11.5 mph 19.6 mph N/A   Clear
4:34 PM 71.6 °F 41.0 °F 33% 29.99 in 10.0 mi ESE 11.5 mph - N/A   Clear
4:55 PM 69.8 °F 41.0 °F 35% 29.99 in 10.0 mi East 10.4 mph - N/A   Clear
5:14 PM 71.6 °F 42.8 °F 35% 29.99 in 10.0 mi ESE 10.4 mph 17.3 mph N/A   Clear
5:35 PM 69.8 °F 41.0 °F 35% 29.99 in 10.0 mi SE 13.8 mph - N/A   Clear
5:55 PM 69.8 °F 41.0 °F 35% 29.99 in 10.0 mi SE 8.1 mph - N/A   Clear
6:14 PM 69.8 °F 41.0 °F 35% 29.99 in 10.0 mi East 10.4 mph - N/A   Clear
6:35 PM 69.8 °F 41.0 °F 35% 29.99 in 10.0 mi East 12.7 mph 16.1 mph N/A   Clear
6:55 PM 68.0 °F 37.4 °F 33% 30.00 in 10.0 mi East 13.8 mph - N/A   Clear
7:14 PM 66.2 °F 35.6 °F 32% 30.00 in 10.0 mi East 10.4 mph - N/A   Clear
7:35 PM 66.2 °F 37.4 °F 35% 30.00 in 10.0 mi East 6.9 mph - N/A   Clear
8:14 PM 64.4 °F 35.6 °F 34% 30.01 in 10.0 mi East 8.1 mph - N/A   Clear
8:35 PM 62.6 °F 37.4 °F 39% 30.01 in 10.0 mi East 4.6 mph - N/A   Clear
8:55 PM 62.6 °F 35.6 °F 37% 30.01 in 10.0 mi East 4.6 mph - N/A   Clear
9:14 PM 60.8 °F 37.4 °F 42% 30.01 in 10.0 mi East 3.5 mph - N/A   Clear
9:35 PM 60.8 °F 35.6 °F 39% 30.02 in 10.0 mi Calm Calm - N/A   Clear
9:54 PM 60.8 °F 35.6 °F 39% 30.02 in 10.0 mi ENE 3.5 mph - N/A   Scattered Clouds
10:35 PM 59.0 °F 35.6 °F 42% 30.02 in 10.0 mi ENE 4.6 mph - N/A   Mostly Cloudy
10:55 PM 60.8 °F 35.6 °F 39% 30.02 in 10.0 mi ENE 4.6 mph - N/A   Mostly Cloudy
11:15 PM 60.8 °F 35.6 °F 39% 30.02 in 10.0 mi ENE 3.5 mph - N/A   Scattered Clouds
11:34 PM 59.0 °F 37.4 °F 45% 30.01 in 10.0 mi ENE 5.8 mph - N/A   Clear
11:55 PM 59.0 °F 35.6 °F 42% 30.01 in 10.0 mi ENE 5.8 mph - N/A   Clear